Regional Weather Roundup
Issued by NWS Charleston, WV

Home | Current Version | Previous Version | Graphics & Text | Print | Product List | Glossary On
Versions: 1 2 3 4 5 6 7 8 9 10 11 12 13 14 15 16 17 18 19 20 21 22 23 24 25 26 27 28 29 30 31 32 33 34 35 36 37 38 39 40 41 42 43 44 45 46 47 48 49 50
000
ASUS41 KRLX 022310
RWRRLX
West Virginia Regional Weather Roundup
National Weather Service Charleston WV
700 PM EDT SAT MAY 02 2015

Note: "fair" indicates few or no clouds below 12,000 feet with no
significant weather and/or obstructions to visibility.

WVZ003-030000-
Northern Panhandle of West Virginia

CITY           SKY/WX    TMP DP  RH WIND       PRES   REMARKS
WHEELING       PTSUNNY   71  38  29 CALM      30.02S
$$

WVZ009-030000-
Northwest West Virginia

CITY           SKY/WX    TMP DP  RH WIND       PRES   REMARKS
PARKERSBURG    MOSUNNY   73  35  25 CALM      30.05S
$$

WVZ006-030000-
Western West Virginia

CITY           SKY/WX    TMP DP  RH WIND       PRES   REMARKS
HUNTINGTON     SUNNY     70  43  37 CALM      30.05R
$$

WVZ015-030000-
West Central West Virginia

CITY           SKY/WX    TMP DP  RH WIND       PRES   REMARKS
CHARLESTON     MOSUNNY   73  35  25 NW5       30.05R
$$

WVZ022-031-030000-
North Central West Virginia

CITY           SKY/WX    TMP DP  RH WIND       PRES   REMARKS
CLARKSBURG     MOSUNNY   69  38  32 N3        30.03S
MORGANTOWN     MOSUNNY   72  34  24 W5        30.03F
$$

WVZ025-035-042-045-030000-
Southern West Virginia

CITY           SKY/WX    TMP DP  RH WIND       PRES   REMARKS
BECKLEY        CLOUDY    65  32  29 N8        30.09S
LOGAN            N/A     70  34  26 CALM      30.04S
BLUEFIELD      CLOUDY    65  31  28 NW7       30.10S
LEWISBURG      PTSUNNY   67  32  26 N7        30.07S
$$

WVZ047-030000-
Northern Mountains of West Virginia

CITY           SKY/WX    TMP DP  RH WIND       PRES   REMARKS
ELKINS         MOSUNNY   63  35  35 NW6       30.06S
$$

WVZ052-030000-
Eastern Panhandle of West Virginia

CITY           SKY/WX    TMP DP  RH WIND       PRES   REMARKS
MARTINSBURG    PTSUNNY   73  37  27 W5        29.98S
PETERSBURG     MOSUNNY   71  32  23 NW7       30.02S
$$


USA.gov is the U.S. government's official web portal to all federal, state and local government web resources and services.